Location: Lugrin
(46.4033°N, 6.6674°E)
Time: 16:49:46
(UTC+00:00)

NOSS 2-2 (E) - Pass Details

Date: 18 September 2020
Orbit: 468 x 1739 km, 63.3° (Epoch: 26 October)

Event Time Altitude Azimuth Distance (km) Brightness Sun altitude
Rises 19:11:30 0° 226° (SW) 2,497 7.0 -16.5°
Reaches altitude 10° 19:13:32 10° 229° (SW) 1,626 6.1 -16.9°
Maximum altitude 19:17:00 64° 312° (NW) 552 3.5 -17.4°
Drops below altitude 10° 19:20:59 10° 35° (NE) 1,860 5.9 -18.1°
Sets 19:23:28 0° 38° (NE) 2,903 6.9 -18.5°
